• In Uzbekistan
  • List of Countries
  • For 7 days
  • Water Temperature
  • Satellite Maps
  • Weather Map
  • Weather Widgets
  • user-avatar
    Login

    Hourly Weather Hmelevec-Kryukovo

    Today, 18 August, Saturday

    Time Temperature Precipitation Wind Pressure Humidity
    00:00 +15°C° 0 mm 2 mps 748 mmHg 74%
    01:00 +15°C° 0 mm 2 mps 748 mmHg 75%
    02:00 +14°C° 0 mm 2 mps 748 mmHg 77%
    03:00 +13°C° 0 mm 3 mps 748 mmHg 78%
    04:00 +14°C° 0 mm 2 mps 748 mmHg 80%
    05:00 +14°C° 0 mm 2 mps 748 mmHg 82%
    06:00 +14°C° 0 mm 2 mps 748 mmHg 83%
    07:00 +16°C° 0 mm 2 mps 748 mmHg 78%
    08:00 +18°C° 0 mm 2 mps 749 mmHg 73%
    09:00 +20°C° 0 mm 2 mps 749 mmHg 68%
    10:00 +21°C° 0 mm 2 mps 749 mmHg 63%
    11:00 +23°C° 0 mm 2 mps 749 mmHg 58%
    12:00 +24°C° 0 mm 3 mps 749 mmHg 53%
    13:00 +24°C° 0 mm 2 mps 748 mmHg 52%
    14:00 +25°C° 0 mm 2 mps 748 mmHg 50%
    15:00 +25°C° 0 mm 2 mps 748 mmHg 48%
    16:00 +25°C° 0 mm 2 mps 748 mmHg 52%
    17:00 +24°C° 0 mm 2 mps 748 mmHg 55%
    18:00 +24°C° 0 mm 1 mps 748 mmHg 59%
    19:00 +22°C° 0 mm 1 mps 748 mmHg 62%
    20:00 +20°C° 0 mm 1 mps 748 mmHg 65%
    21:00 +19°C° 0 mm 1 mps 748 mmHg 68%
    22:00 +18°C° 0 mm 1 mps 748 mmHg 69%
    23:00 +18°C° 0 mm 1 mps 748 mmHg 70%

    Tomorrow, 19 August, Sunday

    Time Temperature Precipitation Wind Pressure Humidity
    00:00 +16°C° 0 mm 1 mps 748 mmHg 72%
    01:00 +16°C° 0 mm 1 mps 748 mmHg 73%
    02:00 +15°C° 0 mm 1 mps 748 mmHg 74%
    03:00 +15°C° 0 mm 1 mps 748 mmHg 76%
    04:00 +15°C° 0 mm 2 mps 748 mmHg 77%
    05:00 +15°C° 0 mm 2 mps 748 mmHg 79%
    06:00 +14°C° 0 mm 2 mps 748 mmHg 81%
    07:00 +16°C° 0 mm 2 mps 748 mmHg 76%
    08:00 +18°C° 0 mm 2 mps 748 mmHg 71%
    09:00 +20°C° 0 mm 2 mps 748 mmHg 66%
    10:00 +21°C° 0 mm 3 mps 748 mmHg 61%
    11:00 +24°C° 0 mm 3 mps 748 mmHg 57%
    12:00 +25°C° 0 mm 3 mps 748 mmHg 53%
    13:00 +25°C° 0 mm 3 mps 747 mmHg 52%
    14:00 +26°C° 0 mm 3 mps 747 mmHg 51%
    15:00 +26°C° 0 mm 4 mps 747 mmHg 51%
    16:00 +25°C° 0 mm 3 mps 746 mmHg 54%
    17:00 +25°C° 0 mm 3 mps 746 mmHg 58%
    18:00 +25°C° 0 mm 3 mps 746 mmHg 62%
    19:00 +22°C° 0 mm 3 mps 746 mmHg 65%
    20:00 +20°C° 0 mm 3 mps 746 mmHg 68%
    21:00 +19°C° 0 mm 3 mps 745 mmHg 71%
    22:00 +18°C° 0 mm 3 mps 745 mmHg 71%
    23:00 +18°C° 0 mm 3 mps 745 mmHg 71%

    Day after tomorrow, 20 August, Monday

    Time Temperature Precipitation Wind Pressure Humidity
    00:00 +17°C° 0 mm 3 mps 745 mmHg 72%
    01:00 +17°C° 0 mm 3 mps 745 mmHg 72%
    02:00 +17°C° 0 mm 3 mps 745 mmHg 73%
    03:00 +16°C° 0 mm 3 mps 744 mmHg 74%
    04:00 +16°C° 0 mm 3 mps 744 mmHg 76%
    05:00 +16°C° 0 mm 3 mps 744 mmHg 78%
    06:00 +16°C° 0 mm 3 mps 744 mmHg 79%
    07:00 +18°C° 0 mm 3 mps 744 mmHg 75%
    08:00 +19°C° 0 mm 4 mps 744 mmHg 71%
    09:00 +21°C° 0 mm 4 mps 744 mmHg 67%
    10:00 +22°C° 0 mm 4 mps 744 mmHg 65%
    11:00 +23°C° 0 mm 4 mps 744 mmHg 62%
    12:00 +26°C° 0 mm 5 mps 744 mmHg 60%
    13:00 +26°C° 0.2 mm 5 mps 743 mmHg 59%
    14:00 +27°C° 0.2 mm 5 mps 743 mmHg 59%
    15:00 +27°C° 0.2 mm 5 mps 743 mmHg 58%
    16:00 +26°C° 0.5 mm 4 mps 743 mmHg 63%
    17:00 +26°C° 0.5 mm 4 mps 742 mmHg 68%
    18:00 +25°C° 0.5 mm 3 mps 742 mmHg 72%
    19:00 +24°C° 0 mm 3 mps 742 mmHg 77%
    20:00 +21°C° 0 mm 2 mps 742 mmHg 81%
    21:00 +20°C° 0 mm 2 mps 742 mmHg 86%
    22:00 +19°C° 0 mm 2 mps 742 mmHg 87%
    23:00 +19°C° 0 mm 2 mps 742 mmHg 88%

    21 August, Tuesday

    Time Temperature Precipitation Wind Pressure Humidity
    00:00 +18°C° 0 mm 2 mps 742 mmHg 89%
    01:00 +18°C° 0 mm 2 mps 742 mmHg 90%
    02:00 +17°C° 0 mm 2 mps 742 mmHg 91%
    03:00 +17°C° 0 mm 2 mps 742 mmHg 91%
    04:00 +17°C° 0 mm 2 mps 742 mmHg 92%
    05:00 +16°C° 0 mm 2 mps 742 mmHg 92%
    06:00 +16°C° 0 mm 2 mps 741 mmHg 93%
    07:00 +18°C° 0 mm 2 mps 741 mmHg 87%
    08:00 +20°C° 0 mm 3 mps 741 mmHg 82%
    09:00 +21°C° 0 mm 3 mps 741 mmHg 77%
    10:00 +22°C° 0 mm 4 mps 741 mmHg 71%
    11:00 +25°C° 0 mm 5 mps 741 mmHg 66%
    12:00 +26°C° 0 mm 5 mps 740 mmHg 60%
    13:00 +27°C° 0 mm 6 mps 740 mmHg 58%
    14:00 +27°C° 0 mm 6 mps 739 mmHg 56%
    15:00 +28°C° 0 mm 7 mps 739 mmHg 55%
    16:00 +27°C° 0.3 mm 6 mps 739 mmHg 60%
    17:00 +26°C° 0.3 mm 6 mps 738 mmHg 65%
    18:00 +24°C° 0.3 mm 6 mps 738 mmHg 70%
    19:00 +23°C° 0.4 mm 5 mps 738 mmHg 75%
    20:00 +21°C° 0.4 mm 5 mps 738 mmHg 79%
    21:00 +20°C° 0.4 mm 5 mps 738 mmHg 84%
    22:00 +20°C° 0.3 mm 5 mps 738 mmHg 86%
    23:00 +19°C° 0.3 mm 5 mps 738 mmHg 89%

    22 August, Wednesday

    Time Temperature Precipitation Wind Pressure Humidity
    00:00 +17°C° 0.3 mm 5 mps 738 mmHg 91%
    01:00 +16°C° 0 mm 5 mps 739 mmHg 92%
    02:00 +15°C° 0 mm 4 mps 739 mmHg 93%
    03:00 +14°C° 0 mm 4 mps 740 mmHg 93%
    04:00 +13°C° 0 mm 4 mps 740 mmHg 93%
    05:00 +12°C° 0 mm 4 mps 741 mmHg 93%
    06:00 +12°C° 0 mm 4 mps 741 mmHg 93%
    07:00 +13°C° 0 mm 4 mps 742 mmHg 87%
    08:00 +14°C° 0 mm 5 mps 742 mmHg 80%
    09:00 +15°C° 0 mm 5 mps 743 mmHg 73%
    10:00 +16°C° 0 mm 5 mps 743 mmHg 67%
    11:00 +17°C° 0 mm 6 mps 743 mmHg 61%
    12:00 +19°C° 0 mm 6 mps 743 mmHg 56%
    13:00 +20°C° 0 mm 6 mps 743 mmHg 54%
    14:00 +20°C° 0 mm 6 mps 744 mmHg 53%
    15:00 +21°C° 0 mm 6 mps 744 mmHg 52%
    16:00 +20°C° 0 mm 5 mps 744 mmHg 55%
    17:00 +20°C° 0 mm 4 mps 744 mmHg 58%
    18:00 +19°C° 0 mm 3 mps 744 mmHg 62%
    19:00 +18°C° 0 mm 3 mps 745 mmHg 66%
    20:00 +16°C° 0 mm 3 mps 745 mmHg 70%
    21:00 +14°C° 0 mm 2 mps 746 mmHg 74%
    22:00 +14°C° 0 mm 2 mps 746 mmHg 75%
    23:00 +13°C° 0 mm 2 mps 746 mmHg 77%

    23 August, Thursday

    Time Temperature Precipitation Wind Pressure Humidity
    00:00 +13°C° 0 mm 2 mps 746 mmHg 78%
    01:00 +12°C° 0 mm 2 mps 747 mmHg 79%
    02:00 +12°C° 0 mm 2 mps 747 mmHg 79%
    03:00 +10°C° 0 mm 2 mps 747 mmHg 80%
    04:00 +10°C° 0 mm 2 mps 747 mmHg 80%
    05:00 +9°C° 0 mm 2 mps 747 mmHg 79%
    06:00 +9°C° 0 mm 2 mps 747 mmHg 79%
    07:00 +12°C° 0 mm 2 mps 748 mmHg 73%
    08:00 +14°C° 0 mm 2 mps 748 mmHg 66%
    09:00 +16°C° 0 mm 2 mps 748 mmHg 60%
    10:00 +17°C° 0 mm 2 mps 748 mmHg 56%
    11:00 +18°C° 0 mm 2 mps 747 mmHg 51%
    12:00 +19°C° 0 mm 3 mps 747 mmHg 47%
    13:00 +20°C° 0 mm 3 mps 747 mmHg 47%
    14:00 +20°C° 0 mm 3 mps 747 mmHg 47%
    15:00 +21°C° 0 mm 3 mps 747 mmHg 46%
    16:00 +21°C° 0 mm 3 mps 746 mmHg 51%
    17:00 +20°C° 0 mm 3 mps 746 mmHg 55%
    18:00 +20°C° 0 mm 2 mps 746 mmHg 59%
    19:00 +18°C° 0 mm 2 mps 746 mmHg 62%
    20:00 +17°C° 0 mm 2 mps 746 mmHg 66%
    21:00 +15°C° 0 mm 2 mps 746 mmHg 69%
    22:00 +15°C° 0 mm 2 mps 746 mmHg 71%
    23:00 +13°C° 0 mm 3 mps 746 mmHg 73%
    Show more